TimeCDT,TemperatureF,Dew PointF,Humidity,Sea Level PressureIn,VisibilityMPH,Wind Direction,Wind SpeedMPH,Gust SpeedMPH,PrecipitationIn,Events,Conditions,WindDirDegrees,DateUTC
12:52 AM,80.1,62.1,54,29.99,10.0,SW,11.5,-,N/A,,Clear,220,2013-09-11 05:52:00
1:52 AM,73.9,63.0,68,30.00,10.0,West,4.6,-,N/A,,Clear,280,2013-09-11 06:52:00
2:52 AM,73.0,63.0,71,30.00,10.0,SW,5.8,-,N/A,,Clear,230,2013-09-11 07:52:00
3:52 AM,75.9,63.0,64,30.00,10.0,SW,5.8,-,N/A,,Mostly Cloudy,230,2013-09-11 08:52:00
4:52 AM,75.9,63.0,64,30.00,10.0,WSW,5.8,-,N/A,,Partly Cloudy,240,2013-09-11 09:52:00
5:52 AM,75.9,63.0,64,30.01,10.0,WSW,9.2,-,N/A,,Clear,250,2013-09-11 10:52:00
6:52 AM,73.0,64.0,73,30.05,10.0,West,5.8,-,N/A,,Scattered Clouds,270,2013-09-11 11:52:00
7:52 AM,73.9,64.0,71,30.06,10.0,Calm,Calm,-,N/A,,Clear,0,2013-09-11 12:52:00
8:52 AM,78.1,63.0,60,30.06,10.0,NNE,5.8,-,N/A,,Partly Cloudy,30,2013-09-11 13:52:00
9:52 AM,79.0,63.0,58,30.06,10.0,ESE,5.8,-,N/A,,Partly Cloudy,120,2013-09-11 14:52:00
10:52 AM,82.9,64.0,53,30.06,10.0,SSW,4.6,-,N/A,,Clear,210,2013-09-11 15:52:00
11:52 AM,82.9,64.9,54,30.06,10.0,West,6.9,-,N/A,,Clear,270,2013-09-11 16:52:00
12:52 PM,81.0,64.9,58,30.05,10.0,Calm,Calm,-,N/A,,Mostly Cloudy,0,2013-09-11 17:52:00
1:52 PM,77.0,66.9,71,30.06,7.0,WNW,5.8,-,0.00,Rain,Light Rain,300,2013-09-11 18:52:00
2:52 PM,81.0,68.0,65,30.05,10.0,West,5.8,-,0.00,,Scattered Clouds,260,2013-09-11 19:52:00
3:52 PM,81.0,66.0,60,30.04,10.0,WSW,11.5,17.3,N/A,,Mostly Cloudy,250,2013-09-11 20:52:00
4:52 PM,81.0,66.9,62,30.03,10.0,WSW,9.2,-,N/A,,Scattered Clouds,240,2013-09-11 21:52:00
5:52 PM,78.1,68.0,71,30.03,10.0,SW,10.4,-,N/A,,Partly Cloudy,230,2013-09-11 22:52:00
6:52 PM,77.0,66.9,71,30.01,10.0,WSW,5.8,-,N/A,,Scattered Clouds,250,2013-09-11 23:52:00
7:52 PM,73.9,68.0,82,30.01,10.0,Calm,Calm,-,N/A,,Scattered Clouds,0,2013-09-12 00:52:00
8:52 PM,73.0,66.9,81,30.02,10.0,West,4.6,-,N/A,,Clear,280,2013-09-12 01:52:00
9:52 PM,71.1,66.9,87,30.03,10.0,Calm,Calm,-,N/A,,Clear,0,2013-09-12 02:52:00
10:52 PM,69.1,66.0,90,30.04,10.0,West,4.6,-,N/A,,Clear,260,2013-09-12 03:52:00
11:52 PM,68.0,64.9,90,30.02,10.0,West,4.6,-,N/A,,Clear,280,2013-09-12 04:52:00